DW4939 Weather Reports


Display with metric or nautical units.
time (UTC)temp
F
wind
direction
speed
MPH
gust
MPH
rain 1hr
in
rain 24hr
in
rain mn
in
humidity
%
barometer
mb
20210615232016 63 0 0.0 0.0 0.00 0.00 0.00 86 1011.3
20210615231016 63 0 0.0 0.0 0.00 0.00 0.00 85 1011.2
20210615230020 64 0 0.0 0.0 0.00 0.00 0.00 85 1011.2
20210615225017 64 0 0.0 0.0 0.00 0.00 0.00 85 1011.3
20210615224016 64 0 0.0 0.0 0.00 0.00 0.00 85 1011.5
20210615223021 64 0 0.0 0.0 0.00 0.00 0.00 84 1011.4
20210615222017 64 0 0.0 0.0 0.00 0.00 0.00 84 1011.5
20210615221017 64 0 0.0 0.0 0.00 0.00 0.00 84 1011.6
20210615220021 65 0 0.0 0.0 0.00 0.00 0.00 83 1011.6
20210615215016 65 0 0.0 0.0 0.00 0.00 0.00 82 1011.6
20210615214016 65 0 0.0 0.0 0.00 0.00 0.00 81 1011.8
20210615213019 66 0 0.0 0.0 0.00 0.00 0.00 80 1011.8
20210615212016 66 0 0.0 0.0 0.00 0.00 0.00 78 1011.9
20210615211017 67 0 0.0 0.0 0.00 0.00 0.00 77 1011.9
20210615210020 67 0 0.0 0.0 0.00 0.00 0.00 76 1011.9
20210615205017 68 0 0.0 0.0 0.00 0.00 0.00 75 1011.8
20210615204017 68 0 0.0 0.0 0.00 0.00 0.00 73 1011.8
20210615203020 69 0 0.0 0.0 0.00 0.00 0.00 73 1011.8
20210615202017 69 0 0.0 0.0 0.00 0.00 0.00 70 1011.8
20210615201017 70 0 0.0 0.0 0.00 0.00 0.00 68 1011.6
20210615200020 70 0 0.0 0.0 0.00 0.00 0.00 66 1011.5
20210615195017 71 0 0.0 0.0 0.00 0.00 0.00 65 1011.4
20210615194017 72 0 0.0 0.0 0.00 0.00 0.00 62 1011.4
20210615193020 72 0 0.0 0.0 0.00 0.00 0.00 62 1011.3
20210615192017 73 0 0.0 0.0 0.00 0.00 0.00 61 1011.1
20210615191017 74 0 0.0 0.0 0.00 0.00 0.00 59 1011.2
20210615190024 75 0 0.0 0.0 0.00 0.00 0.00 57 1011.1
20210615185018 76 0 0.0 0.0 0.00 0.00 0.00 55 1010.9
20210615184020 76 0 0.0 0.0 0.00 0.00 0.00 54 1011.1
20210615183023 77 0 0.0 0.0 0.00 0.00 0.00 52 1010.9
20210615182016 79 0 0.0 0.0 0.00 0.00 0.00 48 1011.0
20210615181017 82 0 0.0 0.0 0.00 0.00 0.00 45 1010.7
20210615180019 83 0 0.0 0.0 0.00 0.00 0.00 47 1010.6
20210615175019 83 0 0.0 0.0 0.00 0.00 0.00 46 1010.7
20210615174017 84 0 0.0 0.0 0.00 0.00 0.00 44 1010.6
20210615173022 85 0 0.0 0.0 0.00 0.00 0.00 43 1010.6
20210615172017 86 0 0.0 0.0 0.00 0.00 0.00 42 1010.8
20210615171017 85 0 0.0 0.0 0.00 0.00 0.00 40 1010.9
20210615170020 83 0 0.0 0.0 0.00 0.00 0.00 42 1010.7
20210615165017 81 0 0.0 0.0 0.00 0.00 0.00 44 1010.8
20210615164016 82 0 0.0 0.0 0.00 0.00 0.00 45 1010.9
20210615163020 83 0 0.0 0.0 0.00 0.00 0.00 44 1010.7
20210615162017 85 0 0.0 0.0 0.00 0.00 0.00 41 1010.8
20210615161017 86 0 0.0 0.0 0.00 0.00 0.00 38 1010.6
20210615160020 86 0 0.0 0.0 0.00 0.00 0.00 38 1010.8
20210615155017 90 0 0.0 0.0 0.00 0.00 0.00 33 1010.8
20210615154017 90 0 0.0 0.0 0.00 0.00 0.00 31 1010.9
20210615153020 89 0 0.0 0.0 0.00 0.00 0.00 32 1010.9
20210615152017 89 0 0.0 0.0 0.00 0.00 0.00 32 1011.2
20210615151016 89 0 0.0 0.0 0.00 0.00 0.00 30 1010.9
20210615150020 90 0 0.0 0.0 0.00 0.00 0.00 31 1011.1
20210615145019 90 0 0.0 0.0 0.00 0.00 0.00 30 1010.9
20210615144018 89 0 0.0 0.0 0.00 0.00 0.00 32 1011.1
20210615143020 91 0 0.0 0.0 0.00 0.00 0.00 27 1011.1
20210615142017 90 0 0.0 0.0 0.00 0.00 0.00 32 1011.3
20210615141017 89 0 0.0 0.0 0.00 0.00 0.00 32 1011.2
20210615140022 89 0 0.0 0.0 0.00 0.00 0.00 32 1011.2
20210615135017 90 0 0.0 0.0 0.00 0.00 0.00 34 1011.3
20210615134016 88 0 0.0 0.0 0.00 0.00 0.00 34 1011.3
20210615133022 84 0 0.0 0.0 0.00 0.00 0.00 41 1011.5
20210615132017 83 0 0.0 0.0 0.00 0.00 0.00 38 1011.3
20210615131016 87 0 0.0 0.0 0.00 0.00 0.00 33 1011.4
20210615130022 88 0 0.0 0.0 0.00 0.00 0.00 33 1011.4
20210615125017 87 0 0.0 0.0 0.00 0.00 0.00 35 1011.6
20210615124017 88 0 0.0 0.0 0.00 0.00 0.00 35 1011.6
20210615123024 87 0 0.0 0.0 0.00 0.00 0.00 41 1011.7
20210615122018 86 0 0.0 0.0 0.00 0.00 0.00 39 1011.5
20210615121018 86 0 0.0 0.0 0.00 0.00 0.00 40 1011.6
20210615120020 87 0 0.0 0.0 0.00 0.00 0.00 38 1011.7
20210615115017 87 0 0.0 0.0 0.00 0.00 0.00 38 1011.7
20210615114016 86 0 0.0 0.0 0.00 0.00 0.00 40 1011.6
20210615113023 85 0 0.0 0.0 0.00 0.00 0.00 37 1012.0
20210615112021 84 0 0.0 0.0 0.00 0.00 0.00 44 1011.8
20210615111017 84 0 0.0 0.0 0.00 0.00 0.00 42 1011.8
20210615110020 84 0 0.0 0.0 0.00 0.00 0.00 41 1011.8
20210615105017 85 0 0.0 0.0 0.00 0.00 0.00 40 1011.9
20210615104017 85 0 0.0 0.0 0.00 0.00 0.00 40 1012.1
20210615103021 83 0 0.0 0.0 0.00 0.00 0.00 43 1012.1
20210615102017 84 0 0.0 0.0 0.00 0.00 0.00 43 1012.1
20210615101016 83 0 0.0 0.0 0.00 0.00 0.00 46 1012.1
20210615100020 81 0 0.0 0.0 0.00 0.00 0.00 44 1012.2
20210615095017 82 0 0.0 0.0 0.00 0.00 0.00 46 1012.3
20210615094016 82 0 0.0 0.0 0.00 0.00 0.00 44 1012.4
20210615093020 81 0 0.0 0.0 0.00 0.00 0.00 48 1012.3
20210615092016 82 0 0.0 0.0 0.00 0.00 0.00 50 1012.2
20210615091016 80 0 0.0 0.0 0.00 0.00 0.00 53 1012.4
20210615090020 79 0 0.0 0.0 0.00 0.00 0.00 52 1012.3
20210615085017 78 0 0.0 0.0 0.00 0.00 0.00 55 1012.3
20210615084016 75 0 0.0 0.0 0.00 0.00 0.00 60 1012.2
20210615083020 74 0 0.0 0.0 0.00 0.00 0.00 62 1012.3
20210615082016 73 0 0.0 0.0 0.00 0.00 0.00 64 1012.4
20210615081016 71 0 0.0 0.0 0.00 0.00 0.00 68 1012.3
20210615080020 70 0 0.0 0.0 0.00 0.00 0.00 70 1012.4
20210615075016 69 0 0.0 0.0 0.00 0.00 0.00 72 1012.3
20210615074017 67 0 0.0 0.0 0.00 0.00 0.00 74 1012.3
20210615073020 65 0 0.0 0.0 0.00 0.00 0.00 76 1012.3
20210615072016 64 0 0.0 0.0 0.00 0.00 0.00 78 1012.3
20210615071017 63 0 0.0 0.0 0.00 0.00 0.00 80 1012.2
20210615070023 62 0 0.0 0.0 0.00 0.00 0.00 83 1012.2
20210615065019 61 0 0.0 0.0 0.00 0.00 0.00 85 1012.4
20210615064019 60 0 0.0 0.0 0.00 0.00 0.00 88 1012.4
20210615063021 60 0 0.0 0.0 0.00 0.00 0.00 90 1012.4
20210615062017 59 0 0.0 0.0 0.00 0.00 0.00 93 1012.4
20210615061016 58 0 0.0 0.0 0.00 0.00 0.00 96 1012.3
20210615060020 57 0 0.0 0.0 0.00 0.00 0.00 97 1012.0
20210615055017 56 0 0.0 0.0 0.00 0.00 0.00 97 1012.1
20210615054016 55 0 0.0 0.0 0.00 0.00 0.00 97 1012.1
20210615053019 54 0 0.0 0.0 0.00 0.00 0.00 97 1012.1
20210615052016 54 0 0.0 0.0 0.00 0.00 0.00 97 1012.1
20210615051016 53 0 0.0 0.0 0.00 0.00 0.00 100 1012.1
20210615050020 53 0 0.0 0.0 0.00 0.00 0.00 100 1012.0
20210615045016 52 0 0.0 0.0 0.00 0.00 0.00 97 1012.1
20210615044016 52 0 0.0 0.0 0.00 0.00 0.00 97 1012.0
20210615043019 52 0 0.0 0.0 0.00 0.00 0.00 97 1012.0
20210615042016 52 0 0.0 0.0 0.00 0.00 0.00 97 1011.9
20210615041017 52 0 0.0 0.0 0.00 0.00 0.00 96 1012.0
20210615040020 52 0 0.0 0.0 0.00 0.00 0.00 96 1012.0
20210615035017 52 0 0.0 0.0 0.00 0.00 0.00 96 1011.8
20210615034016 52 0 0.0 0.0 0.00 0.00 0.00 96 1011.9
20210615033020 52 0 0.0 0.0 0.00 0.00 0.00 96 1011.9
20210615032016 52 0 0.0 0.0 0.00 0.00 0.00 96 1012.0
20210615031016 52 0 0.0 0.0 0.00 0.00 0.00 95 1011.9
20210615030020 51 0 0.0 0.0 0.00 0.00 0.00 95 1011.8
20210615025016 52 0 0.0 0.0 0.00 0.00 0.00 94 1011.8
20210615024016 52 0 0.0 0.0 0.00 0.00 0.00 94 1011.7
20210615023023 52 0 0.0 0.0 0.00 0.00 0.00 93 1012.0
20210615022018 53 0 0.0 0.0 0.00 0.00 0.00 93 1011.8
20210615021016 53 0 0.0 0.0 0.00 0.00 0.00 93 1011.7
20210615020020 53 0 0.0 0.0 0.00 0.00 0.00 93 1011.6
20210615015016 53 0 0.0 0.0 0.00 0.00 0.00 92 1011.8
20210615014016 53 0 0.0 0.0 0.00 0.00 0.00 92 1011.8
20210615013020 54 0 0.0 0.0 0.00 0.00 0.00 91 1011.9
20210615012016 54 0 0.0 0.0 0.00 0.00 0.00 90 1011.7
20210615011016 54 0 0.0 0.0 0.00 0.00 0.00 89 1011.9
20210615010025 54 0 0.0 0.0 0.00 0.00 0.00 88 1012.0
20210615005018 54 0 0.0 0.0 0.00 0.00 0.00 88 1012.0
20210615004017 55 0 0.0 0.0 0.00 0.00 0.00 87 1012.0
20210615003022 55 0 0.0 0.0 0.00 0.00 0.00 86 1012.0
20210615002016 55 0 0.0 0.0 0.00 0.00 0.00 86 1011.9
20210615001016 56 0 0.0 0.0 0.00 0.00 0.00 86 1012.0
20210615000022 56 0 0.0 0.0 0.00 0.00 0.00 86 1011.8
20210614235018 57 0 0.0 0.0 0.00 0.00 0.00 85 1012.3
20210614234017 57 0 0.0 0.0 0.00 0.00 0.00 85 1012.3
20210614233021 57 0 0.0 0.0 0.00 0.00 0.00 84 1012.2